Regional Weather Roundup
Issued by NWS Green Bay, WI

Home | Current Version | Previous Version | Text Only | Print | Product List | Glossary On
Versions: 1 2 3 4 5 6 7 8 9 10 11 12 13 14 15 16 17 18 19 20 21 22 23 24 25 26 27 28 29 30 31 32 33 34 35 36 37 38 39 40 41 42 43 44 45 46 47 48 49 50
000
ASUS43 KGRB 211159
RWRGRB

NORTH-CENTRAL AND NORTHEAST WISCONSIN REGIONAL WEATHER ROUNDUP
NATIONAL WEATHER SERVICE GREEN BAY WI
700 AM CDT SUN SEP 21 2014

WIZ005-009-010>012-018-019-211300-
NORTH CENTRAL WISCONSIN

CITY           SKY/WX    TMP DP  RH WIND       PRES   REMARKS
IRONWOOD       MOCLDY    46  46 100 NE6       29.89R
MANITOWISH WTR NOT AVBL
ARBOR VITAE    NOT AVBL
EAGLE RIVER    NOT AVBL
LAND O LAKES   NOT AVBL
RHINELANDER    LGT RAIN  51  49  92 N7        29.83R
PHILLIPS       NOT AVBL
ANTIGO         NOT AVBL
TOMAHAWK       NOT AVBL
MERRILL        NOT AVBL
$$

WIZ013-073-211300-
NORTHEAST WISCONSIN

CITY           SKY/WX    TMP DP  RH WIND       PRES   REMARKS
IRON MOUNTAIN  CLOUDY    52  48  86 N13       29.76R
MARINETTE      CLOUDY    54  50  87 N15G21    29.71R
$$

WIZ017-030-035>037-045-211300-
CENTRAL WISCONSIN

CITY           SKY/WX    TMP DP  RH WIND       PRES   REMARKS
MEDFORD        NOT AVBL
WAUSAU         LGT RAIN  53  52  96 N8        29.79R
MOSINEE        LGT RAIN  54  54 100 NW12      29.80R
MARSHFIELD     CLOUDY    54  52  93 NW10      29.82R
WISC RAPIDS    CLOUDY    53  51  93 NW8       29.81R
STEVENS POINT  NOT AVBL
WAUPACA        NOT AVBL
SHAWANO        CLOUDY    56  54  92 NW5       29.75R
CLINTONVILLE   LGT RAIN  55  52  88 N7        29.74R
$$

WIZ038-039-048-051-211300-
FOX VALLEY

CITY           SKY/WX    TMP DP  RH WIND       PRES   REMARKS
NWS GREEN BAY  LGT RAIN  55  54  96 N10       29.72R
APPLETON       CLOUDY    54  54 100 NW10G20   29.74R
OSHKOSH        CLOUDY    55  52  89 NW12G21   29.73R
FOND DU LAC    CLOUDY    55  50  83 NW16      29.73R
$$

WIZ022-050-052-211300-
EAST CENTRAL WISCONSIN

CITY           SKY/WX    TMP DP  RH WIND       PRES   REMARKS
STURGEON BAY   CLOUDY    55  50  82 N15       29.70R
MANITOWOC      NOT AVBL
SHEBOYGAN      LGT RAIN  55  51  86 W12G20    29.70R
$$

LMZ563-521-522-541>543-211300-
LAKESHORE

STATION/POSITION TIME  TEMP    WIND        PRES    VSBY  WAVE
                       AIR SEA DIR/SP/G                  HT/PER
                 (UTC) (F)     (DEG/KT/KT) (MB)    (MI)  (FT/S)
SHEBOYGAN LKSHOR 1100   57 53  270/ 14/ 19 1004.7S
KEWAUNEE LKSHORE 1100   55     340/  9/ 12 1004.1R
NORTHPORT PIER   1100   56     340/ 21/ 25 1004.1R
N MID LAKE BUOY  1100   56 58  350/ 19/ 23 1002.6R         2/ 4
S GREEN BAY BUOY 1100   57     VRB 16/ 21  1006.3R
SISTER BAY LKSHO 1100           10/ 22/ 24   N/A
CHAMBERS ISLAND  1100   56     320/ 15/ 18 1004.7R
MENOMINEE LKSHOR 1100   55     330/ 17/ 19 1006.0R
$$


USA.gov is the U.S. government's official web portal to all federal, state and local government web resources and services.